Powrót do katalogu

SSOT

AktywnyNaukaSSO
NORAD 38011·PAYLOAD·🇨🇱 Chile

Wystrzelony Dec 17, 2011 z Guiana Space Centre

Loading…

Następne Przeloty (najbliższe 24 godziny)

TLE

ŚwieżeSource: Space-Track

Epoka: Sep 14, 2026, 15:48 UTC

1 38011U 11076E   26257.65892881  .00000291  00000-0  42537-4 0  9994
2 38011  97.7982 315.8963 0001397  90.0781  61.1911 14.82656655797636

Śledź SSOT w czasie rzeczywistym z AllMySat

Download on the App Store